This is the latest recevied weather packets stored in our database for station/object N3FU-13. If no packets are shown the sender has not sent any weather packets the latest 10 day(s).
| Time | Temp. | Humidity | Pressure | Rain* | Wind** | Luminosity | Snow |
|---|---|---|---|---|---|---|---|
| 1777952525 | 23.89° C | 75% | 1015.5 hPa | 0 mm | - | - | - |
| 1777951625 | 23.89° C | 75% | 1015.5 hPa | 0 mm | - | - | - |
| 1777950725 | 23.89° C | 74% | 1015.6 hPa | 0 mm | - | - | - |
| 1777949826 | 23.89° C | 74% | 1015.7 hPa | 0 mm | - | - | - |
| 1777948926 | 24.44° C | 73% | 1015.6 hPa | 0 mm | - | - | - |
| 1777948646 | 24.44° C | 73% | 1015.5 hPa | 0 mm | - | - | - |
| 1777948026 | 24.44° C | 73% | 1015.5 hPa | 0 mm | - | - | - |
| 1777947126 | 24.44° C | 73% | 1015.4 hPa | 0 mm | - | - | - |
| 1777946226 | 24.44° C | 72% | 1015.2 hPa | 0 mm | - | - | - |
| 1777945326 | 24.44° C | 71% | 1015 hPa | 0 mm | - | - | - |
| 1777944426 | 24.44° C | 70% | 1014.9 hPa | 0 mm | - | - | - |
| 1777943579 | 25° C | 61% | 1014.2 hPa | 0 mm | - | - | - |
| 1777943526 | 24.44° C | 64% | 1014.5 hPa | 0 mm | - | - | - |
| 1777942626 | 25° C | 63% | 1014.5 hPa | 0 mm | - | - | - |
| 1777941726 | 25° C | 61% | 1014.2 hPa | 0 mm | - | - | - |
| 1777940826 | 25.56° C | 59% | 1014.1 hPa | 0 mm | - | - | - |
| 1777939926 | 26.11° C | 59% | 1014 hPa | 0 mm | - | - | - |
| 1777939026 | 26.67° C | 58% | 1013.6 hPa | 0 mm | - | - | - |
| 1777938126 | 26.67° C | 57% | 1013.3 hPa | 0 mm | - | - | - |
| 1777937226 | 27.78° C | 55% | 1013.2 hPa | 0 mm | - | - | - |
| 1777936326 | 28.33° C | 53% | 1013 hPa | 0 mm | - | - | - |
| 1777935426 | 29.44° C | 51% | 1013.1 hPa | 0 mm | - | - | - |
| 1777935032 | 30.56° C | 49% | 1013 hPa | 0 mm | - | - | - |
| 1777934526 | 30.56° C | 49% | 1013 hPa | 0 mm | - | - | - |
| 1777933626 | 31.11° C | 48% | 1012.9 hPa | 0 mm | - | - | - |
* Rain latest hour (hover to see other rain measurements)
** Current wind speed in m/s (hover to see current wind gust speed)